Back to catalog

ONEWEB-0138

AliveCommunicationsPO
NORAD 47284·PAYLOAD·🇬🇧 United Kingdom

Launched Dec 18, 2020 from Vostochny Cosmodrome

Loading…

Next Passes (next 24 hours)

TLE

FreshSource: CelesTrak SupGP

Epoch: Sep 14, 2026, 22:36 UTC

1 47284C 20100AC  26257.94183287 -.00001396  00000+0 -38857-2 0  2572
2 47284  87.8983 332.8495 0001715  95.8906 298.5486 13.12443455    10

Track ONEWEB-0138 in real time with AllMySat

Download on the App Store